RADUGA 18 [-]

Last updated on Oct. 27, 2020, 5:53 a.m. UTC

1 16497U 86007A   20300.51243845 -.00000246  00000-0  00000-0 0  9998
2 16497  13.7618 337.0803 0072736 147.8546 224.9481  0.98813874125511
UTC
Height (km)
Latitude
Longitude
Inclination
Orbital Period
UTC large
Height (km)
Speed (km/s)
/
Latitude / Longitude
Inclination (degrees)
Orbital Period (minutes)
Azimuth
Elevation
Range (km)
Doppler Factor
iOS Compass Heading
iOS Angle

Next 30 passes for location: Hong Kong

Rise time Rise Azimuth (degrees) Set time Set Azimuth (degrees) Duration Max altitude (degrees)

No matching passes for this satellites